CW1490 Weather Reports


Display with metric or nautical units.
time (UTC)temp
F
wind
direction
speed
MPH
gust
MPH
rain 1hr
in
rain 24hr
in
rain mn
in
humidity
%
barometer
mb
20150127081429 14 28 7.0 12.0 0.00 0.00 0.00 87 1011.3
20150127080032 14 55 6.0 16.0 0.00 0.00 0.00 86 1011.1
20150127074426 14 45 10.0 19.0 0.00 0.00 0.00 85 1010.6
20150127072924 14 41 12.0 18.0 0.00 0.00 0.00 85 1010.8
20150127071421 14 45 8.0 15.0 0.00 0.00 0.00 84 1011.1
20150127065920 14 34 8.0 14.0 0.00 0.00 0.00 83 1011.3
20150127064416 15 46 12.0 18.0 0.00 0.00 0.00 80 1011.5
20150127062914 15 42 10.0 17.0 0.00 0.00 0.00 76 1011.6
20150127061410 16 49 14.0 25.0 0.00 0.00 0.00 71 1011.7
20150127055906 17 56 11.0 20.0 0.00 0.00 0.00 57 1012.4
20150127054402 18 43 13.0 21.0 0.00 0.00 0.00 50 1012.9
20150127052858 18 26 11.0 18.0 0.00 0.00 0.00 48 1013.1
20150127051356 18 32 9.0 16.0 0.00 0.00 0.00 47 1013.6
20150127045852 18 47 13.0 23.0 0.00 0.00 0.00 45 1013.6
20150127044348 18 35 10.0 17.0 0.00 0.00 0.00 44 1013.7
20150127042844 18 36 7.0 20.0 0.00 0.00 0.00 45 1014.4
20150127041339 18 39 10.0 16.0 0.00 0.00 0.00 48 1014.8
20150127035833 18 69 6.0 15.0 0.00 0.00 0.00 54 1015.3
20150127034423 19 19 9.0 17.0 0.00 0.00 0.00 57 1015.4
20150127032919 19 21 6.0 12.0 0.00 0.00 0.00 58 1015.8
20150127031414 19 72 7.0 12.0 0.00 0.00 0.00 60 1016.2
20150127025909 19 32 6.0 13.0 0.00 0.00 0.00 63 1016.5
20150127024406 18 29 8.0 14.0 0.00 0.00 0.00 67 1016.7
20150127022901 18 3 8.0 14.0 0.00 0.00 0.00 73 1017.0
20150127021357 18 345 6.0 11.0 0.00 0.00 0.00 76 1017.3
20150127015853 18 10 5.0 10.0 0.00 0.00 0.00 80 1017.5
20150127014449 18 350 6.0 12.0 0.00 0.00 0.00 83 1017.8
20150127012846 18 26 8.0 11.0 0.00 0.00 0.00 84 1018.2
20150127011342 18 26 8.0 14.0 0.00 0.00 0.00 82 1018.5
20150127005838 18 43 9.0 14.0 0.00 0.00 0.00 80 1018.8
20150127004333 19 33 6.0 13.0 0.00 0.00 0.00 75 1018.9
20150127002829 19 48 3.0 12.0 0.00 0.00 0.00 71 1019.0
20150127001325 20 61 8.0 11.0 0.00 0.00 0.00 61 1018.9
20150126235845 20 61 3.0 9.0 0.00 0.00 0.00 60 1018.7
20150126234316 20 84 3.0 6.0 0.00 0.00 0.00 58 1018.7
20150126232812 20 38 5.0 9.0 0.00 0.00 0.00 57 1018.3
20150126231308 20 45 4.0 7.0 0.00 0.00 0.00 58 1018.4
20150126225804 20 37 3.0 5.0 0.00 0.00 0.00 58 1018.7
20150126224258 20 45 2.0 4.0 0.00 0.00 0.00 59 1018.8
20150126222755 20 45 3.0 9.0 0.00 0.00 0.00 57 1018.7
20150126221250 20 45 3.0 7.0 0.00 0.00 0.00 59 1018.1
20150126215746 20 46 3.0 6.0 0.00 0.00 0.00 60 1018.2
20150126214241 19 22 3.0 5.0 0.00 0.00 0.00 59 1018.5
20150126212738 19 27 0.0 4.0 0.00 0.00 0.00 56 1018.7
20150126211534 19 48 1.0 5.0 0.00 0.00 0.00 57 1018.4
20150126205731 19 72 3.0 6.0 0.00 0.00 0.00 56 1018.3
20150126204224 19 76 4.0 9.0 0.00 0.00 0.00 54 1018.1
20150126202721 19 46 4.0 7.0 0.00 0.00 0.00 56 1018.2
20150126201217 19 34 3.0 6.0 0.00 0.00 0.00 55 1018.6
20150126195713 19 26 3.0 5.0 0.00 0.00 0.00 53 1018.7
20150126194208 19 32 4.0 6.0 0.00 0.00 0.00 52 1018.6
20150126192704 19 28 3.0 6.0 0.00 0.00 0.00 51 1018.3
20150126191159 18 51 2.0 6.0 0.00 0.00 0.00 49 1018.5
20150126185655 18 49 2.0 4.0 0.00 0.00 0.00 50 1017.9
20150126184151 18 42 2.0 8.0 0.00 0.00 0.00 50 1018.0
20150126182747 18 53 5.0 7.0 0.00 0.00 0.00 49 1017.9
20150126181143 17 355 4.0 7.0 0.00 0.00 0.00 51 1018.1
20150126175638 17 47 5.0 9.0 0.00 0.00 0.00 52 1018.7
20150126174134 16 33 4.0 5.0 0.00 0.00 0.00 52 1019.3
20150126172630 16 52 3.0 6.0 0.00 0.00 0.00 51 1019.7
20150126171125 16 61 5.0 7.0 0.00 0.00 0.00 52 1019.8
20150126165621 15 64 5.0 9.0 0.00 0.00 0.00 54 1020.0
20150126164116 14 63 4.0 10.0 0.00 0.00 0.00 54 1020.5
20150126162611 13 39 3.0 9.0 0.00 0.00 0.00 56 1020.8
20150126161108 13 36 4.0 9.0 0.00 0.00 0.00 57 1021.3
20150126155604 12 71 4.0 9.0 0.00 0.00 0.00 58 1021.5
20150126154059 11 45 7.0 13.0 0.00 0.00 0.00 60 1021.6
20150126152555 10 78 4.0 8.0 0.00 0.00 0.00 62 1021.9
20150126151050 10 52 4.0 8.0 0.00 0.00 0.00 64 1021.7
20150126145546 9 35 4.0 7.0 0.00 0.01 0.00 64 1021.7
20150126144042 9 59 4.0 7.0 0.00 0.01 0.00 64 1021.6
20150126142538 9 86 3.0 9.0 0.00 0.01 0.00 65 1021.6
20150126141034 8 57 4.0 8.0 0.00 0.01 0.00 66 1021.5
20150126135530 8 66 5.0 10.0 0.00 0.01 0.00 67 1021.4
20150126134025 7 59 4.0 8.0 0.00 0.01 0.00 69 1021.4
20150126132521 7 51 3.0 6.0 0.00 0.01 0.00 69 1021.5
20150126131016 6 29 3.0 10.0 0.00 0.01 0.00 70 1021.4
20150126125512 6 34 5.0 9.0 0.00 0.01 0.00 70 1021.2
20150126124008 6 31 4.0 9.0 0.00 0.01 0.00 70 1021.0
20150126122504 6 39 5.0 9.0 0.00 0.01 0.00 70 1020.9
20150126120959 6 7 3.0 7.0 0.00 0.01 0.00 70 1020.8
20150126115455 6 24 3.0 9.0 0.00 0.01 0.00 70 1020.8
20150126113951 6 36 4.0 9.0 0.00 0.01 0.00 70 1020.7
20150126112446 7 36 3.0 8.0 0.00 0.01 0.00 70 1020.8
20150126111042 7 20 3.0 10.0 0.00 0.01 0.00 69 1020.6
20150126105438 7 20 2.0 10.0 0.00 0.01 0.00 69 1020.5
20150126103933 7 24 5.0 11.0 0.00 0.01 0.00 69 1020.1
20150126102429 7 44 4.0 10.0 0.00 0.01 0.00 69 1020.1
20150126100924 8 39 7.0 10.0 0.00 0.01 0.00 69 1020.2
20150126095420 8 39 3.0 9.0 0.00 0.01 0.00 70 1020.0
20150126093915 8 36 4.0 7.0 0.00 0.01 0.00 71 1020.0
20150126092412 8 30 4.0 9.0 0.00 0.01 0.00 72 1020.0
20150126090910 8 43 2.0 4.0 0.00 0.01 0.00 72 1020.0
20150126085408 8 30 3.0 5.0 0.00 0.01 0.00 71 1020.0
20150126083906 8 45 2.0 4.0 0.00 0.01 0.00 70 1019.8
20150126082403 8 33 3.0 4.0 0.00 0.01 0.00 69 1019.6